EN

Hourly Weather Travneve

Today, 12 April, Monday

Time Temperature Precipitation Wind Pressure Humidity
00:00 +6°C° 0 mm 2 mps 752 mmHg 61%
01:00 +6°C° 0 mm 2 mps 752 mmHg 62%
02:00 +6°C° 0 mm 2 mps 752 mmHg 62%
03:00 +5°C° 0 mm 2 mps 752 mmHg 63%
04:00 +5°C° 0 mm 2 mps 752 mmHg 64%
05:00 +6°C° 0 mm 1 mps 751 mmHg 64%
06:00 +6°C° 0 mm 2 mps 751 mmHg 62%
07:00 +8°C° 0 mm 2 mps 751 mmHg 59%
08:00 +9°C° 0 mm 2 mps 751 mmHg 56%
09:00 +12°C° 0 mm 2 mps 751 mmHg 51%
10:00 +13°C° 0 mm 2 mps 750 mmHg 47%
11:00 +15°C° 0 mm 2 mps 750 mmHg 42%
12:00 +15°C° 0 mm 2 mps 749 mmHg 40%
13:00 +16°C° 0 mm 2 mps 749 mmHg 38%
14:00 +16°C° 0 mm 2 mps 749 mmHg 36%
15:00 +16°C° 0 mm 3 mps 748 mmHg 41%
16:00 +14°C° 0 mm 3 mps 748 mmHg 47%
17:00 +13°C° 0 mm 3 mps 748 mmHg 52%
18:00 +12°C° 0 mm 3 mps 748 mmHg 63%
19:00 +10°C° 0 mm 3 mps 749 mmHg 73%
20:00 +8°C° 0 mm 2 mps 749 mmHg 84%
21:00 +8°C° 0 mm 2 mps 749 mmHg 86%
22:00 +8°C° 0 mm 2 mps 749 mmHg 87%
23:00 +8°C° 0 mm 1 mps 748 mmHg 89%

Tomorrow, 13 April, Tuesday

Time Temperature Precipitation Wind Pressure Humidity
00:00 +8°C° 0 mm 1 mps 748 mmHg 88%
01:00 +8°C° 0 mm 1 mps 748 mmHg 87%
02:00 +7°C° 0 mm 0 mps 748 mmHg 86%
03:00 +7°C° 0 mm 0 mps 748 mmHg 86%
04:00 +7°C° 0 mm 0 mps 748 mmHg 86%
05:00 +7°C° 0 mm 0 mps 748 mmHg 86%
06:00 +8°C° 0 mm 0 mps 748 mmHg 83%
07:00 +9°C° 0 mm 1 mps 748 mmHg 81%
08:00 +10°C° 0 mm 1 mps 748 mmHg 78%
09:00 +11°C° 0 mm 1 mps 747 mmHg 77%
10:00 +12°C° 0 mm 2 mps 747 mmHg 75%
11:00 +12°C° 0 mm 2 mps 747 mmHg 73%
12:00 +12°C° 0 mm 2 mps 747 mmHg 74%
13:00 +11°C° 0 mm 3 mps 747 mmHg 74%
14:00 +11°C° 0 mm 3 mps 747 mmHg 75%
15:00 +11°C° 0 mm 3 mps 746 mmHg 79%
16:00 +10°C° 0 mm 3 mps 746 mmHg 82%
17:00 +10°C° 0 mm 3 mps 746 mmHg 86%
18:00 +9°C° 0.3 mm 3 mps 746 mmHg 89%
19:00 +9°C° 0.3 mm 2 mps 746 mmHg 92%
20:00 +8°C° 0.3 mm 2 mps 746 mmHg 95%
21:00 +8°C° 0 mm 2 mps 746 mmHg 94%
22:00 +8°C° 0 mm 2 mps 745 mmHg 94%
23:00 +8°C° 0 mm 3 mps 745 mmHg 94%

Day after tomorrow, 14 April, Wednesday

Time Temperature Precipitation Wind Pressure Humidity
00:00 +8°C° 0.1 mm 3 mps 745 mmHg 94%
01:00 +8°C° 0.1 mm 3 mps 744 mmHg 94%
02:00 +8°C° 0.1 mm 3 mps 744 mmHg 95%
03:00 +8°C° 0.3 mm 3 mps 744 mmHg 95%
04:00 +8°C° 0.3 mm 3 mps 744 mmHg 95%
05:00 +8°C° 0.3 mm 3 mps 744 mmHg 95%
06:00 +8°C° 0.3 mm 3 mps 744 mmHg 94%
07:00 +8°C° 0.3 mm 3 mps 744 mmHg 93%
08:00 +8°C° 0.3 mm 3 mps 744 mmHg 91%
09:00 +8°C° 0.1 mm 3 mps 744 mmHg 88%
10:00 +9°C° 0.1 mm 3 mps 744 mmHg 85%
11:00 +9°C° 0.1 mm 3 mps 744 mmHg 83%
12:00 +10°C° 0 mm 3 mps 744 mmHg 76%
13:00 +12°C° 0 mm 3 mps 744 mmHg 69%
14:00 +13°C° 0 mm 4 mps 743 mmHg 62%
15:00 +12°C° 0 mm 4 mps 743 mmHg 64%
16:00 +12°C° 0 mm 4 mps 743 mmHg 67%
17:00 +12°C° 0 mm 4 mps 743 mmHg 69%
18:00 +11°C° 0 mm 3 mps 743 mmHg 74%
19:00 +10°C° 0 mm 3 mps 743 mmHg 79%
20:00 +8°C° 0 mm 2 mps 743 mmHg 85%
21:00 +8°C° 0 mm 2 mps 743 mmHg 85%
22:00 +8°C° 0 mm 2 mps 743 mmHg 85%
23:00 +8°C° 0 mm 2 mps 743 mmHg 86%

15 April, Thursday

Time Temperature Precipitation Wind Pressure Humidity
00:00 +9°C° 0 mm 1 mps 743 mmHg 86%
01:00 +8°C° 0 mm 1 mps 743 mmHg 87%
02:00 +8°C° 0 mm 1 mps 743 mmHg 88%
03:00 +7°C° 0 mm 2 mps 743 mmHg 88%
04:00 +7°C° 0 mm 2 mps 743 mmHg 89%
05:00 +7°C° 0 mm 2 mps 743 mmHg 90%
06:00 +7°C° 0.5 mm 2 mps 743 mmHg 90%
07:00 +7°C° 0.5 mm 2 mps 743 mmHg 91%
08:00 +8°C° 0.5 mm 2 mps 743 mmHg 91%
09:00 +9°C° 0.3 mm 2 mps 743 mmHg 85%
10:00 +10°C° 0.3 mm 3 mps 742 mmHg 79%
11:00 +11°C° 0.3 mm 3 mps 742 mmHg 73%
12:00 +12°C° 0.3 mm 3 mps 742 mmHg 69%
13:00 +12°C° 0.3 mm 3 mps 742 mmHg 66%
14:00 +13°C° 0.3 mm 3 mps 742 mmHg 62%
15:00 +12°C° 0.1 mm 3 mps 742 mmHg 66%
16:00 +12°C° 0.1 mm 3 mps 742 mmHg 70%
17:00 +12°C° 0.1 mm 2 mps 742 mmHg 74%
18:00 +10°C° 0 mm 2 mps 742 mmHg 77%
19:00 +11°C° 0 mm 1 mps 742 mmHg 80%
20:00 +9°C° 0 mm 0 mps 742 mmHg 83%
21:00 +9°C° 0 mm 0 mps 741 mmHg 84%
22:00 +10°C° 0 mm 1 mps 741 mmHg 85%
23:00 +10°C° 0 mm 1 mps 741 mmHg 86%

16 April, Friday

Time Temperature Precipitation Wind Pressure Humidity
00:00 +9°C° 0 mm 1 mps 741 mmHg 86%
01:00 +9°C° 0 mm 1 mps 741 mmHg 87%
02:00 +9°C° 0 mm 1 mps 741 mmHg 87%
03:00 +9°C° 0 mm 1 mps 740 mmHg 88%
04:00 +9°C° 0 mm 1 mps 740 mmHg 89%
05:00 +9°C° 0 mm 1 mps 740 mmHg 90%
06:00 +8°C° 0.8 mm 2 mps 740 mmHg 92%
07:00 +8°C° 0.8 mm 2 mps 740 mmHg 93%
08:00 +8°C° 0.8 mm 2 mps 740 mmHg 94%
09:00 +9°C° 0.2 mm 2 mps 740 mmHg 90%
10:00 +9°C° 0.2 mm 3 mps 740 mmHg 86%
11:00 +10°C° 0.2 mm 3 mps 740 mmHg 82%
12:00 +9°C° 0.7 mm 3 mps 740 mmHg 85%
13:00 +9°C° 0.7 mm 3 mps 740 mmHg 87%
14:00 +8°C° 0.7 mm 3 mps 740 mmHg 90%
15:00 +8°C° 0.2 mm 3 mps 740 mmHg 91%
16:00 +7°C° 0.2 mm 3 mps 741 mmHg 92%
17:00 +7°C° 0.2 mm 3 mps 741 mmHg 93%
18:00 +7°C° 0 mm 3 mps 741 mmHg 92%
19:00 +5°C° 0 mm 3 mps 742 mmHg 92%
20:00 +4°C° 0 mm 4 mps 742 mmHg 92%
21:00 +4°C° 0 mm 3 mps 743 mmHg 92%
22:00 +4°C° 0 mm 3 mps 743 mmHg 93%
23:00 +5°C° 0 mm 2 mps 743 mmHg 94%

17 April, Saturday

Time Temperature Precipitation Wind Pressure Humidity
00:00 +5°C° 0 mm 2 mps 744 mmHg 93%
01:00 +5°C° 0 mm 2 mps 744 mmHg 93%
02:00 +5°C° 0 mm 2 mps 744 mmHg 93%
03:00 +5°C° 0 mm 2 mps 745 mmHg 92%
04:00 +5°C° 0 mm 2 mps 745 mmHg 92%
05:00 +5°C° 0 mm 2 mps 745 mmHg 92%
06:00 +4°C° 0 mm 3 mps 746 mmHg 90%
07:00 +4°C° 0 mm 3 mps 746 mmHg 89%
08:00 +4°C° 0 mm 4 mps 747 mmHg 87%
09:00 +4°C° 0 mm 4 mps 747 mmHg 88%
10:00 +4°C° 0 mm 3 mps 747 mmHg 88%
11:00 +4°C° 0 mm 3 mps 748 mmHg 89%
12:00 +5°C° 0.1 mm 3 mps 748 mmHg 83%
13:00 +8°C° 0.1 mm 3 mps 748 mmHg 76%
14:00 +9°C° 0.1 mm 3 mps 748 mmHg 70%
15:00 +9°C° 0.1 mm 3 mps 749 mmHg 69%
16:00 +10°C° 0.1 mm 3 mps 749 mmHg 68%
17:00 +10°C° 0.1 mm 3 mps 749 mmHg 67%
18:00 +9°C° 0 mm 3 mps 749 mmHg 71%
19:00 +8°C° 0 mm 3 mps 749 mmHg 75%
20:00 +7°C° 0 mm 3 mps 749 mmHg 80%
21:00 +5°C° 0 mm 3 mps 750 mmHg 81%
22:00 +5°C° 0 mm 3 mps 750 mmHg 83%
23:00 +4°C° 0 mm 3 mps 750 mmHg 85%
Show more

We Need Your Consent

Meteoprog and our Service Providers may store and access personal data such as cookies, device identifiers or other similar technologies on your device and process such data to personalise content and ads, as well as provide social media features and to analyse the traffic.

  • Store and/or access information on your device

    Cookies, device identifiers or other information can be stored or accessed on your device for the purposes indicated above.

  • Personalised ads and content, ad and content measurement, audience insights, and products development

    Ads and content can be personalised based on a profile. More data can be added to better personalise ads and content. Ad and content performance can be measured. Insights about the audience who saw the ads and content can be derived. Such data can be used to develop or improve user’s experience, systems and software.

By clicking ‘I Agree’ you will allow the use of indicated cookies, device identifiers, web beacons or other similar technologies. Your settings can be changed in the browser on your device.

For certain purposes, legitimate interests may be relied on, rather than consent. You can read more about this in our Privacy and Cookie Policy.